TITAN 3C TRANSTAGE DEB, 13957

Orbit data source: Space-Track

TITAN 3C TRANSTAGE DEB, 13957 is space debris in HEO originally from a launch on Tue, 21 Dec 1965 UTC launched from the Air Force Eastern Test Range (AFETR). Debris objects in space refer to the collection of defunct objects orbiting the Earth. Examples of debris include non-operational satellites, rocket bodies, and fragments generated from explosions, collisions, or faulty payload assembly.

Loading next visibility...
Identifier
13957, 1965-108W
Orbit
HEO
Country
Flag of USUS
Related business
Manufacturer
Unknown
Mission
Spacecraft
Bus & Motor
Unknown
Mass
Unknown
Launch date (UTC)
1965-12-21 (60 years ago)
Launch vehicle
Unknown
Launch site
Air Force Eastern Test Range (AFETR)
Object type
Payload
Rocket body
Debris
Shape & HBR
Unknown shape, 0.4 m
Radar Cross Section
Medium (>0.1 m² and <1 m²)

Expand to show TLE details & history
Last TLE update: 2 days ago

TLE from 2 days ago
0 TITAN 3C TRANSTAGE DEB
1 13957U 65108W   26129.99234353  .00000678  00000-0  34330-2 0  9999
2 13957  26.3502 240.5379 6751223 230.6393 348.0391  2.80340300386079
Epoch: 2026-05-09T23:48Z
TLE epoch observation values (Epoch: 2026-05-09T23:48:58.480Z)
Latitude
7.50379°
Longitude
-179.8248°
Altitude
2,834.123 km
Speed
8.233 km/s
True Right ascension
03h 00m 52s
True Declination
7° 28' 10"
Sunlit
Object was in daylight at epoch
Visualization orbit readout
Latitude
Unknown
Longitude
Unknown
Altitude
Unknown
Speed
Unknown
Apparent Right ascension
Unknown
Apparent Declination
Unknown
Sunlit
N/A
Visualization observer readout
Local Sidereal Time
17:31:47
Azimuth
Unknown
Elevation
Unknown
Doppler factor
Unknown
Orbital elements
Apogee altitude
29,217.707 km
Perigee altitude
525.416 km
Semi-major axis
21,249.699 km
Eccentricity
0.67512
Inclination
26.3502°
RAAN
240.5379°
Arg. of periapsis
230.6393°
True anomaly
292.03768°
Mean anomaly
348.0391°
Eccentric anomaly
326.93447°
Mean motion
0.70067 °/min
Orbital period
513.79 mins
BSTAR
0.003433
Loading maneuver chart data...
Computing Atmospheric mass density...

Documentation

Showing up to 5 results
|